New Ulm, MN

2:11 PM CST on December 08, 2016 (GMT -0600)
New Ulm Municipal

Weather History for KULM - December, 2013

Change the Weather History Date:

Monday, December 16, 2013

  Actual Average Record
Temperature  
Mean Temperature 14 °F -  
Max Temperature 26 °F 27 °F 52 °F (1962)
Min Temperature 3 °F 10 °F -18 °F (1953)
Degree Days  
Heating Degree Days 50    
Moisture  
Dew Point 10 °F    
Average Humidity 88    
Maximum Humidity 100    
Minimum Humidity 78    
Precipitation  
Precipitation 0.00 in - - ()
Sea Level Pressure  
Sea Level Pressure 29.98 in    
Wind  
Wind Speed 8 mph (SSW)    
Max Wind Speed 20 mph    
Max Gust Speed -    
Visibility 9 miles    
Events Snow    
Averages and records for this station are not official NWS values.
T = Trace of Precipitation, MM = Missing Value Source: NWS Daily Summary

Daily Weather History Graph

Daily Weather History Graph

Search for Another Location

Airport or City:

Trip Planner

Search our weather history database for the weather conditions in past years. The results will help you decide how hot, cold, wet, or windy it might be!

Date:

Astronomy

Dec. 16, 2013 Rise Set
Actual Time 7:47 AM CST 4:39 PM CST
Civil Twilight 7:14 AM CST 5:13 PM CST
Nautical Twilight 6:37 AM CST 5:49 PM CST
Astronomical Twilight 6:02 AM CST 6:25 PM CST
Moon 4:32 PM CST (12/16) 6:54 AM CST (12/16)
Length of Visible Light 9h 58m
Length of Day
8h 51m
Full, 100% of the Moon is Illuminated
Dec 16
Full
Dec 17
Full
Dec 25
Last Quarter
Jan 1
New
Jan 7
First Quarter

Hourly Weather History & Observations

Time (CST) Temp. Windchill Dew Point Humidity Pressure Visibility Wind Dir Wind Speed Gust Speed Precip Events Conditions
12:12 AM 3.2 °F -6.2 °F -0.4 °F 85% 30.07 in 10.0 mi East 4.6 mph - N/A   Overcast
12:33 AM 3.2 °F -7.8 °F -0.4 °F 85% 30.06 in 10.0 mi ESE 5.8 mph - N/A   Overcast
12:53 AM 3.2 °F -7.8 °F -0.4 °F 85% 30.05 in 10.0 mi ESE 5.8 mph - N/A   Overcast
1:12 AM 3.2 °F -9.1 °F -0.4 °F 85% 30.05 in 10.0 mi SE 6.9 mph - N/A   Overcast
1:33 AM 5.0 °F -5.6 °F -0.4 °F 78% 30.05 in 10.0 mi SE 5.8 mph - N/A   Overcast
1:53 AM 5.0 °F -5.6 °F 1.4 °F 85% 30.04 in 10.0 mi SE 5.8 mph - N/A   Overcast
2:12 AM 5.0 °F -4.1 °F 1.4 °F 85% 30.05 in 5.0 mi SE 4.6 mph - N/A Snow Light Snow
2:33 AM 6.8 °F -2.0 °F 1.4 °F 79% 30.05 in 10.0 mi SSE 4.6 mph - N/A Snow Light Snow
2:53 AM 6.8 °F -2.0 °F 1.4 °F 79% 30.05 in 10.0 mi SSE 4.6 mph - N/A Snow Light Snow
3:12 AM 6.8 °F -4.8 °F 1.4 °F 79% 30.04 in 10.0 mi SSE 6.9 mph - N/A   Overcast
3:33 AM 6.8 °F -3.5 °F 3.2 °F 85% 30.02 in 10.0 mi SSE 5.8 mph - N/A Snow Light Snow
3:53 AM 6.8 °F -5.9 °F 3.2 °F 85% 30.02 in 10.0 mi SE 8.1 mph - N/A Snow Light Snow
4:13 AM 6.8 °F -4.8 °F 3.2 °F 85% 30.01 in 10.0 mi SSE 6.9 mph - N/A Snow Light Snow
4:33 AM 6.8 °F -5.9 °F 3.2 °F 85% 30.00 in 7.0 mi SSE 8.1 mph - N/A Snow Light Snow
4:53 AM 6.8 °F -5.9 °F 3.2 °F 85% 29.99 in 10.0 mi SSE 8.1 mph - N/A Snow Light Snow
5:13 AM 6.8 °F -0.1 °F 3.2 °F 85% 29.99 in 10.0 mi SSE 3.5 mph - N/A Snow Light Snow
5:33 AM 8.6 °F -2.6 °F 5.0 °F 85% 29.98 in 10.0 mi SSE 6.9 mph - N/A Snow Light Snow
5:53 AM 8.6 °F -4.7 °F 5.0 °F 85% 29.97 in 10.0 mi SSE 9.2 mph - N/A Snow Light Snow
6:13 AM 8.6 °F -3.7 °F 6.8 °F 92% 29.97 in 10.0 mi SSE 8.1 mph - N/A Snow Light Snow
6:33 AM 8.6 °F -4.7 °F 6.8 °F 92% 29.97 in 5.0 mi South 9.2 mph - N/A Snow Light Snow
6:53 AM 8.6 °F -4.7 °F 6.8 °F 92% 29.95 in 10.0 mi South 9.2 mph - N/A Snow Light Snow
7:12 AM 8.6 °F -4.7 °F 6.8 °F 92% 29.95 in 10.0 mi SSE 9.2 mph - N/A Snow Light Snow
7:33 AM 8.6 °F -3.7 °F 6.8 °F 92% 29.95 in 10.0 mi South 8.1 mph - N/A Snow Light Snow
7:53 AM 10.4 °F -1.5 °F 6.8 °F 85% 29.96 in 4.0 mi South 8.1 mph - N/A Snow Light Snow
8:13 AM 10.4 °F 0.8 °F 6.8 °F 85% 29.97 in 5.0 mi South 5.8 mph - N/A Snow Light Snow
8:33 AM 10.4 °F -2.4 °F 8.6 °F 92% 29.96 in 1.8 mi South 9.2 mph - N/A Snow Light Snow
8:53 AM 10.4 °F -1.5 °F 8.6 °F 92% 29.97 in 1.2 mi South 8.1 mph - N/A Snow Light Snow
9:13 AM 10.4 °F -3.3 °F 8.6 °F 92% 29.96 in 1.8 mi South 10.4 mph - N/A Snow Light Snow
9:33 AM 10.4 °F -0.4 °F 8.6 °F 92% 29.97 in 4.0 mi South 6.9 mph - N/A Snow Light Snow
9:53 AM 10.4 °F -0.4 °F 8.6 °F 92% 29.98 in 7.0 mi South 6.9 mph - N/A Snow Light Snow
10:13 AM 12.2 °F 2.9 °F 8.6 °F 85% 29.98 in 7.0 mi South 5.8 mph - N/A Snow Light Snow
10:33 AM 12.2 °F -0.2 °F 10.4 °F 92% 29.96 in 10.0 mi SSE 9.2 mph - N/A   Scattered Clouds
10:53 AM 12.2 °F -1.8 °F 10.4 °F 92% 29.94 in 10.0 mi South 11.5 mph - N/A Snow Light Snow
11:13 AM 12.2 °F -0.2 °F 10.4 °F 92% 29.96 in 10.0 mi SSW 9.2 mph - N/A Snow Light Snow
11:33 AM 14.0 °F 2.0 °F 10.4 °F 86% 29.96 in 10.0 mi SSW 9.2 mph - N/A Snow Light Snow
11:53 AM 14.0 °F 1.2 °F 10.4 °F 86% 29.96 in 7.0 mi SW 10.4 mph - N/A Snow Light Snow
12:13 PM 15.8 °F 4.2 °F 10.4 °F 79% 29.95 in 5.0 mi SW 9.2 mph - N/A Snow Light Snow
12:33 PM 15.8 °F 5.1 °F 10.4 °F 79% 29.94 in 7.0 mi SW 8.1 mph - N/A   Clear
12:53 PM 15.8 °F 5.1 °F 12.2 °F 86% 29.94 in 10.0 mi WSW 8.1 mph - N/A   Clear
1:13 PM 15.8 °F 3.4 °F 12.2 °F 86% 29.94 in 10.0 mi West 10.4 mph - N/A   Scattered Clouds
1:33 PM 15.8 °F 1.4 °F 12.2 °F 86% 29.95 in 10.0 mi West 13.8 mph - N/A   Scattered Clouds
1:53 PM 17.6 °F 4.3 °F 12.2 °F 79% 29.94 in 10.0 mi West 12.7 mph - N/A   Scattered Clouds
2:13 PM 17.6 °F 4.3 °F 14.0 °F 86% 29.95 in 10.0 mi West 12.7 mph - N/A   Clear
2:33 PM 17.6 °F 6.4 °F 14.0 °F 86% 29.96 in 10.0 mi West 9.2 mph - N/A   Clear
2:53 PM 17.6 °F 6.4 °F 14.0 °F 86% 29.96 in 10.0 mi West 9.2 mph - N/A   Clear
3:13 PM 17.6 °F 7.3 °F 15.8 °F 93% 29.97 in 10.0 mi West 8.1 mph - N/A   Clear
3:33 PM 15.8 °F 8.6 °F 12.2 °F 86% 29.97 in 10.0 mi WSW 4.6 mph - N/A   Clear
3:53 PM 15.8 °F 6.1 °F 14.0 °F 93% 29.98 in 10.0 mi WSW 6.9 mph - N/A   Clear
4:13 PM 15.8 °F 6.1 °F 12.2 °F 86% 29.98 in 7.0 mi WSW 6.9 mph - N/A   Clear
4:33 PM 12.2 °F 4.3 °F 10.4 °F 92% 29.98 in 10.0 mi SW 4.6 mph - N/A   Clear
4:53 PM 12.2 °F 2.9 °F 10.4 °F 92% 29.98 in 10.0 mi WSW 5.8 mph - N/A   Clear
5:13 PM 14.0 °F 5.1 °F 12.2 °F 93% 29.98 in 10.0 mi SSW 5.8 mph - N/A   Clear
5:33 PM 15.8 °F 6.1 °F 14.0 °F 93% 29.98 in 10.0 mi SSW 6.9 mph - N/A   Clear
5:53 PM 10.4 °F -0.4 °F 10.4 °F 100% 29.98 in 7.0 mi SW 6.9 mph - N/A   Clear
6:13 PM 15.8 °F 6.1 °F 14.0 °F 93% 29.98 in 10.0 mi SW 6.9 mph - N/A   Clear
6:33 PM 15.8 °F 5.1 °F 12.2 °F 86% 29.98 in 10.0 mi SW 8.1 mph - N/A   Clear
6:52 PM 14.0 °F 2.9 °F 12.2 °F 93% 29.97 in 10.0 mi SW 8.1 mph - N/A   Clear
7:13 PM 14.0 °F 3.9 °F 12.2 °F 93% 29.97 in 10.0 mi SW 6.9 mph - N/A   Clear
7:33 PM 15.8 °F 7.2 °F 12.2 °F 86% 29.97 in 10.0 mi WSW 5.8 mph - N/A   Clear
7:52 PM 17.6 °F 8.2 °F 15.8 °F 93% 29.97 in 10.0 mi WSW 6.9 mph - N/A   Clear
8:13 PM 19.4 °F 8.6 °F 17.6 °F 93% 29.96 in 10.0 mi WSW 9.2 mph - N/A   Clear
8:33 PM 19.4 °F 7.9 °F 15.8 °F 86% 29.97 in 10.0 mi WSW 10.4 mph - N/A   Clear
8:52 PM 17.6 °F 6.4 °F 15.8 °F 93% 29.97 in 10.0 mi WSW 9.2 mph - N/A   Clear
9:13 PM 19.4 °F 9.5 °F 17.6 °F 93% 29.96 in 10.0 mi WSW 8.1 mph - N/A   Clear
9:33 PM 24.8 °F 13.4 °F 19.4 °F 80% 29.96 in 10.0 mi WSW 12.7 mph - N/A   Clear
9:52 PM 24.8 °F 12.4 °F 21.2 °F 86% 29.96 in 10.0 mi WSW 15.0 mph - N/A   Clear
10:13 PM 26.6 °F 13.4 °F 21.2 °F 80% 29.96 in 10.0 mi West 18.4 mph - N/A   Clear
10:33 PM 26.6 °F 13.8 °F 21.2 °F 80% 29.95 in 10.0 mi WSW 17.3 mph - N/A   Clear
10:53 PM 26.6 °F 13.8 °F 23.0 °F 86% 29.96 in 10.0 mi West 17.3 mph - N/A   Clear
11:13 PM 26.6 °F 14.3 °F 23.0 °F 86% 29.95 in 10.0 mi West 16.1 mph - N/A   Clear
11:33 PM 26.6 °F 13.1 °F 24.8 °F 93% 29.95 in 10.0 mi West 19.6 mph - N/A   Clear
11:52 PM 26.6 °F 13.8 °F 24.8 °F 93% 29.95 in 10.0 mi West 17.3 mph - N/A   Clear